Retour au catalogue

METEOSAT 5

MOP 2

ActifMétéoGEO
NORAD 21140·PAYLOAD·🇪🇺 EU

Lancé Mar 2, 1991 depuis Guiana Space Centre

Loading…

TLE

FraisSource: Space-Track

Époque: Sep 13, 2026, 23:58 UTC

1 21140U 91015B   26256.99929159 -.00000141  00000-0  00000-0 0  9995
2 21140  14.6267 349.3475 0011369 263.1208 119.8871  0.98452290131080

Suivez METEOSAT 5 en temps réel avec AllMySat

Download on the App Store